Overview Statistics Trail Chart Weather Telemetry Raw packets
 

This is the latest recevied weather packets stored in our database for station/object WA6ODQ-13. If no packets are shown the sender has not sent any weather packets the latest 10 day(s).

<< 1 2 3 4 5 6 >>
Time Temp. Humidity Pressure Rain* Wind** Luminosity Snow
1788661506 23.33° C 42% 1011.1 hPa 0 mm - 8 W/m² -
1788661195 23.89° C 42% 1011 hPa 0 mm - 11 W/m² -
1788660890 23.89° C 41% 1011.2 hPa 0 mm - 15 W/m² -
1788660584 23.89° C 41% 1011.2 hPa 0 mm - 21 W/m² -
1788660279 24.44° C 41% 1011.3 hPa 0 mm - 27 W/m² -
1788659973 25° C 40% 1011.1 hPa 0 mm - 34 W/m² -
1788659667 25° C 40% 1011.2 hPa 0 mm - 42 W/m² -
1788659367 25° C 40% 1011.2 hPa 0 mm - 53 W/m² -
1788659067 25.56° C 39% 1011.2 hPa 0 mm - 61 W/m² -
1788658763 25.56° C 39% 1011.2 hPa 0 mm - 71 W/m² -
1788658458 26.11° C 38% 1011.1 hPa 0 mm - 79 W/m² -
1788658154 25.56° C 37% 1011.1 hPa 0 mm - 89 W/m² -
1788657849 26.11° C 39% 1011.2 hPa 0 mm - 99 W/m² -
1788657548 26.11° C 38% 1011 hPa 0 mm - 112 W/m² -
1788657243 26.67° C 38% 1011.2 hPa 0 mm - 123 W/m² -
1788656938 26.11° C 39% 1011.1 hPa 0 mm - 131 W/m² -
1788656634 26.67° C 39% 1011.2 hPa 0 mm - 138 W/m² -
1788656330 26.67° C 39% 1011.2 hPa 0 mm - 149 W/m² -
1788656029 26.67° C 39% 1011.1 hPa 0 mm - 157 W/m² -
1788655728 26.67° C 39% 1011.1 hPa 0 mm - 173 W/m² -
1788655428 26.67° C 38% 1011.3 hPa 0 mm - 169 W/m² -
1788655123 27.78° C 38% 1011.2 hPa 0 mm - 209 W/m² -
1788654818 27.22° C 38% 1011 hPa 0 mm - 220 W/m² -
1788654514 27.22° C 39% 1011.1 hPa 0 mm - 249 W/m² -
1788654213 27.22° C 39% 1011 hPa 0 mm - 261 W/m² -

* Rain latest hour (hover to see other rain measurements)
** Current wind speed in m/s (hover to see current wind gust speed)